| time (UTC) | temp F | wind direction | speed MPH | gust MPH | rain 1hr in | rain 24hr in | rain mn in | humidity % | barometer mb |
| 20260506123612 | 55 | 171 | 1.0 | 3.0 | 0.06 | 0.13 | 0.13 | 99 | 1006.9 |
| 20260506122603 | 55 | 253 | 0.0 | 1.0 | 0.08 | 0.13 | 0.13 | 99 | 1006.9 |
| 20260506121624 | 54 | 253 | 0.0 | 0.0 | 0.09 | 0.12 | 0.12 | 99 | 1006.9 |
| 20260506120645 | 54 | 253 | 0.0 | 0.0 | 0.09 | 0.11 | 0.11 | 98 | 1007.3 |
| 20260506115643 | 54 | 253 | 0.0 | 2.0 | 0.08 | 0.10 | 0.10 | 98 | 1007.4 |
| 20260506113607 | 54 | 253 | 0.0 | 1.0 | 0.05 | 0.07 | 0.07 | 97 | 1007.4 |
| 20260506111618 | 54 | 253 | 0.0 | 0.0 | 0.02 | 0.03 | 0.03 | 96 | 1007.4 |
| 20260506110635 | 54 | 253 | 0.0 | 1.0 | 0.02 | 0.02 | 0.02 | 95 | 1007.0 |
| 20260506105630 | 54 | 253 | 1.0 | 2.0 | 0.02 | 0.02 | 0.02 | 94 | 1006.9 |
| 20260506103605 | 55 | 253 | 0.0 | 1.0 | 0.02 | 0.03 | 0.02 | 93 | 1006.9 |
| 20260506102630 | 55 | 253 | 0.0 | 0.0 | 0.01 | 0.02 | 0.01 | 92 | 1006.9 |
| 20260506101632 | 55 | 253 | 0.0 | 1.0 | 0.01 | 0.02 | 0.01 | 92 | 1006.9 |
| 20260506100617 | 55 | 253 | 1.0 | 1.0 | 0.00 | 0.01 | 0.00 | 91 | 1007.2 |
| 20260506095641 | 56 | 253 | 0.0 | 1.0 | 0.00 | 0.01 | 0.00 | 89 | 1006.9 |
| 20260506094634 | 56 | 253 | 0.0 | 0.0 | 0.00 | 0.01 | 0.00 | 88 | 1006.9 |
| 20260506093620 | 56 | 253 | 0.0 | 0.0 | 0.00 | 0.01 | 0.00 | 87 | 1006.7 |
| 20260506092636 | 56 | 253 | 0.0 | 2.0 | 0.00 | 0.01 | 0.00 | 86 | 1007.1 |
| 20260506091644 | 57 | 253 | 0.0 | 2.0 | 0.00 | 0.01 | 0.00 | 84 | 1007.1 |
| 20260506090611 | 58 | 253 | 0.0 | 2.0 | 0.00 | 0.01 | 0.00 | 81 | 1007.0 |
| 20260506085619 | 58 | 253 | 0.0 | 1.0 | 0.00 | 0.01 | 0.00 | 77 | 1007.1 |
| 20260506084614 | 59 | 253 | 0.0 | 2.0 | 0.00 | 0.01 | 0.00 | 74 | 1007.1 |
| 20260506082630 | 60 | 266 | 1.0 | 10.0 | 0.00 | 0.01 | 0.00 | 70 | 1007.7 |
| 20260506081639 | 60 | 240 | 3.0 | 8.0 | 0.00 | 0.01 | 0.00 | 69 | 1007.7 |
| 20260506080600 | 60 | 233 | 2.0 | 7.0 | 0.00 | 0.01 | 0.00 | 68 | 1007.5 |
| 20260506072611 | 62 | 267 | 4.0 | 20.0 | 0.00 | 0.04 | 0.00 | 63 | 1007.8 |
| 20260506071601 | 62 | 268 | 6.0 | 16.0 | 0.00 | 0.04 | 0.00 | 62 | 1007.8 |
| 20260506070600 | 62 | 275 | 6.0 | 12.0 | 0.00 | 0.04 | 0.00 | 59 | 1008.0 |
| 20260506061610 | 58 | 298 | 0.0 | 1.0 | 0.00 | 0.04 | 0.00 | 68 | 1008.0 |
| 20260506060613 | 59 | 328 | 0.0 | 0.0 | 0.00 | 0.04 | 0.00 | 66 | 1008.0 |
| 20260506050603 | 59 | 328 | 0.0 | 1.0 | 0.00 | 0.04 | 0.00 | 65 | 1008.5 |
| 20260506044638 | 59 | 328 | 0.0 | 1.0 | 0.00 | 0.04 | 0.00 | 67 | 1008.6 |
| 20260506043622 | 59 | 328 | 0.0 | 0.0 | 0.00 | 0.04 | 0.00 | 68 | 1008.6 |
| 20260506042612 | 58 | 328 | 0.0 | 1.0 | 0.00 | 0.04 | 0.00 | 70 | 1008.7 |
| 20260506041634 | 58 | 328 | 0.0 | 0.0 | 0.00 | 0.04 | 0.00 | 71 | 1008.7 |
| 20260506040634 | 58 | 328 | 0.0 | 0.0 | 0.00 | 0.04 | 0.00 | 69 | 1008.7 |
| 20260506035618 | 58 | 328 | 0.0 | 0.0 | 0.00 | 0.04 | 0.04 | 70 | 1008.5 |
| 20260506032604 | 59 | 328 | 0.0 | 1.0 | 0.00 | 0.04 | 0.04 | 71 | 1008.4 |
| 20260506030626 | 59 | 328 | 0.0 | 0.0 | 0.00 | 0.04 | 0.04 | 73 | 1008.5 |
| 20260506025645 | 59 | 328 | 0.0 | 0.0 | 0.00 | 0.04 | 0.04 | 72 | 1008.6 |
| 20260506024622 | 59 | 328 | 0.0 | 0.0 | 0.00 | 0.04 | 0.04 | 72 | 1008.6 |
| 20260506023643 | 59 | 328 | 0.0 | 0.0 | 0.00 | 0.04 | 0.04 | 72 | 1008.8 |
| 20260506021622 | 60 | 328 | 0.0 | 3.0 | 0.00 | 0.04 | 0.04 | 71 | 1008.7 |
| 20260506020622 | 61 | 328 | 0.0 | 1.0 | 0.00 | 0.04 | 0.04 | 69 | 1008.5 |
| 20260506015631 | 61 | 328 | 1.0 | 2.0 | 0.00 | 0.04 | 0.04 | 69 | 1008.5 |
| 20260506013633 | 62 | 328 | 3.0 | 4.0 | 0.00 | 0.04 | 0.04 | 67 | 1008.4 |
| 20260506012637 | 63 | 260 | 0.0 | 2.0 | 0.00 | 0.04 | 0.04 | 64 | 1008.2 |
| 20260506011617 | 64 | 260 | 0.0 | 1.0 | 0.00 | 0.04 | 0.04 | 62 | 1008.2 |
| 20260506004635 | 66 | 208 | 0.0 | 5.0 | 0.00 | 0.04 | 0.04 | 56 | 1008.2 |
| 20260506003640 | 67 | 212 | 2.0 | 7.0 | 0.00 | 0.04 | 0.04 | 55 | 1008.0 |
| 20260506002645 | 67 | 237 | 1.0 | 10.0 | 0.00 | 0.04 | 0.04 | 54 | 1007.8 |
| 20260506001637 | 68 | 239 | 2.0 | 8.0 | 0.00 | 0.04 | 0.04 | 54 | 1007.8 |
| 20260506000640 | 68 | 264 | 5.0 | 12.0 | 0.00 | 0.04 | 0.04 | 55 | 1007.9 |
| 20260505235611 | 68 | 256 | 3.0 | 14.0 | 0.00 | 0.04 | 0.04 | 55 | 1007.8 |
| 20260505234630 | 68 | 241 | 4.0 | 8.0 | 0.00 | 0.04 | 0.04 | 55 | 1007.8 |
| 20260505233604 | 68 | 227 | 3.0 | 10.0 | 0.00 | 0.04 | 0.04 | 55 | 1007.7 |
| 20260505232640 | 68 | 255 | 2.0 | 5.0 | 0.00 | 0.04 | 0.04 | 56 | 1007.5 |
| 20260505231604 | 68 | 249 | 3.0 | 7.0 | 0.00 | 0.04 | 0.04 | 55 | 1007.5 |
| 20260505230634 | 69 | 234 | 2.0 | 11.0 | 0.00 | 0.04 | 0.04 | 54 | 1007.4 |
| 20260505225628 | 69 | 243 | 4.0 | 13.0 | 0.00 | 0.04 | 0.04 | 53 | 1007.7 |
| 20260505224629 | 68 | 230 | 3.0 | 10.0 | 0.00 | 0.04 | 0.04 | 53 | 1007.7 |
| 20260505223606 | 68 | 245 | 4.0 | 12.0 | 0.00 | 0.04 | 0.04 | 54 | 1007.8 |
| 20260505222602 | 68 | 270 | 4.0 | 10.0 | 0.00 | 0.04 | 0.04 | 56 | 1007.8 |
| 20260505221630 | 69 | 270 | 4.0 | 12.0 | 0.00 | 0.04 | 0.04 | 55 | 1007.8 |
| 20260505220638 | 69 | 252 | 3.0 | 13.0 | 0.00 | 0.04 | 0.04 | 54 | 1007.7 |
| 20260505215603 | 69 | 257 | 4.0 | 16.0 | 0.00 | 0.04 | 0.04 | 54 | 1007.7 |
| 20260505214608 | 69 | 260 | 2.0 | 10.0 | 0.00 | 0.04 | 0.04 | 55 | 1007.7 |
| 20260505213643 | 68 | 265 | 3.0 | 12.0 | 0.00 | 0.04 | 0.04 | 55 | 1007.7 |
| 20260505212619 | 68 | 274 | 6.0 | 18.0 | 0.00 | 0.04 | 0.04 | 55 | 1007.7 |
| 20260505211629 | 68 | 251 | 2.0 | 12.0 | 0.00 | 0.04 | 0.04 | 56 | 1007.7 |
| 20260505210644 | 67 | 266 | 3.0 | 9.0 | 0.00 | 0.04 | 0.04 | 59 | 1007.6 |
| 20260505205636 | 67 | 248 | 2.0 | 8.0 | 0.00 | 0.04 | 0.04 | 60 | 1007.6 |
| 20260505204605 | 66 | 262 | 3.0 | 8.0 | 0.00 | 0.04 | 0.04 | 62 | 1007.6 |
| 20260505203644 | 69 | 272 | 5.0 | 14.0 | 0.00 | 0.04 | 0.04 | 59 | 1007.7 |
| 20260505202632 | 72 | 245 | 5.0 | 14.0 | 0.00 | 0.04 | 0.04 | 43 | 1007.1 |
| 20260505201646 | 72 | 234 | 3.0 | 16.0 | 0.00 | 0.04 | 0.04 | 43 | 1007.1 |
| 20260505200618 | 72 | 240 | 6.0 | 12.0 | 0.00 | 0.04 | 0.04 | 43 | 1007.2 |
| 20260505194636 | 71 | 237 | 5.0 | 10.0 | 0.00 | 0.04 | 0.04 | 46 | 1007.3 |
| 20260505192611 | 72 | 221 | 7.0 | 14.0 | 0.00 | 0.04 | 0.04 | 42 | 1007.6 |
| 20260505191604 | 72 | 238 | 7.0 | 19.0 | 0.00 | 0.04 | 0.04 | 42 | 1007.6 |
| 20260505190628 | 72 | 244 | 9.0 | 24.0 | 0.00 | 0.04 | 0.04 | 41 | 1007.5 |
| 20260505185611 | 72 | 251 | 5.0 | 13.0 | 0.00 | 0.04 | 0.04 | 43 | 1007.3 |
| 20260505183600 | 73 | 202 | 5.0 | 20.0 | 0.00 | 0.04 | 0.04 | 40 | 1007.2 |
| 20260505182629 | 74 | 238 | 7.0 | 22.0 | 0.00 | 0.04 | 0.04 | 41 | 1007.2 |
| 20260505181627 | 74 | 203 | 10.0 | 26.0 | 0.00 | 0.04 | 0.04 | 39 | 1007.2 |
| 20260505175620 | 73 | 218 | 11.0 | 24.0 | 0.00 | 0.04 | 0.04 | 39 | 1007.8 |
| 20260505174633 | 73 | 219 | 10.0 | 21.0 | 0.00 | 0.04 | 0.04 | 39 | 1007.8 |
| 20260505173625 | 72 | 224 | 8.0 | 28.0 | 0.00 | 0.04 | 0.04 | 41 | 1007.8 |
| 20260505172613 | 72 | 247 | 7.0 | 22.0 | 0.00 | 0.04 | 0.04 | 44 | 1008.0 |
| 20260505171600 | 72 | 243 | 8.0 | 22.0 | 0.00 | 0.04 | 0.04 | 43 | 1008.0 |
| 20260505170621 | 71 | 248 | 8.0 | 20.0 | 0.00 | 0.04 | 0.04 | 44 | 1008.2 |
| 20260505165623 | 71 | 224 | 11.0 | 30.0 | 0.00 | 0.04 | 0.04 | 44 | 1008.3 |
| 20260505164645 | 71 | 222 | 12.0 | 27.0 | 0.00 | 0.04 | 0.04 | 42 | 1008.3 |
| 20260505163602 | 70 | 225 | 11.0 | 24.0 | 0.00 | 0.04 | 0.04 | 47 | 1008.4 |
| 20260505162601 | 70 | 226 | 7.0 | 21.0 | 0.00 | 0.04 | 0.04 | 47 | 1008.5 |
| 20260505161606 | 71 | 226 | 10.0 | 19.0 | 0.00 | 0.04 | 0.04 | 47 | 1008.5 |
| 20260505160625 | 71 | 238 | 5.0 | 16.0 | 0.00 | 0.04 | 0.04 | 50 | 1008.7 |
| 20260505152613 | 69 | 242 | 8.0 | 24.0 | 0.00 | 0.04 | 0.04 | 51 | 1009.2 |
| 20260505151640 | 68 | 232 | 5.0 | 15.0 | 0.00 | 0.04 | 0.04 | 54 | 1009.2 |
| 20260505150605 | 68 | 208 | 11.0 | 18.0 | 0.00 | 0.04 | 0.04 | 52 | 1009.1 |
| 20260505140613 | 69 | 217 | 7.0 | 15.0 | 0.00 | 0.04 | 0.04 | 56 | 1008.8 |